• In Deutschland
  • Länderverzeichnis
  • Für 7 Tage
  • Wassertemperatur
  • Satellitenkarten
  • Wetterkarte
  • Widgets
  • user-avatar
    Anmelden

    Stündliche Wetter Malye Azobichi

    Heute, 20 Juli, Freitag

    Zeit Temperatur Niederschläge Wind Luftdruck Luftfeuchtigkeit
    00:00 +18°C° 0 mm 2 m/S 735 mmHg 97%
    01:00 +17°C° 0 mm 2 m/S 735 mmHg 98%
    02:00 +17°C° 0 mm 2 m/S 735 mmHg 98%
    03:00 +17°C° 0 mm 2 m/S 735 mmHg 98%
    04:00 +18°C° 0 mm 2 m/S 735 mmHg 98%
    05:00 +18°C° 0 mm 2 m/S 735 mmHg 98%
    06:00 +18°C° 0 mm 2 m/S 735 mmHg 97%
    07:00 +19°C° 0 mm 2 m/S 735 mmHg 96%
    08:00 +20°C° 0 mm 2 m/S 735 mmHg 95%
    09:00 +20°C° 0,3 mm 2 m/S 735 mmHg 93%
    10:00 +21°C° 0,3 mm 2 m/S 735 mmHg 91%
    11:00 +22°C° 0,3 mm 3 m/S 735 mmHg 89%
    12:00 +24°C° 0,4 mm 2 m/S 735 mmHg 87%
    13:00 +24°C° 0,4 mm 2 m/S 735 mmHg 84%
    14:00 +25°C° 0,4 mm 2 m/S 735 mmHg 82%
    15:00 +25°C° 0,3 mm 2 m/S 735 mmHg 82%
    16:00 +25°C° 0,3 mm 2 m/S 735 mmHg 81%
    17:00 +25°C° 0,3 mm 1 m/S 735 mmHg 81%
    18:00 +24°C° 0,3 mm 1 m/S 735 mmHg 85%
    19:00 +23°C° 0,3 mm 1 m/S 735 mmHg 90%
    20:00 +22°C° 0,3 mm 1 m/S 735 mmHg 94%
    21:00 +21°C° 0,1 mm 1 m/S 735 mmHg 95%
    22:00 +21°C° 0,1 mm 1 m/S 735 mmHg 95%
    23:00 +20°C° 0,1 mm 1 m/S 735 mmHg 96%

    Morgen, 21 Juli, Samstag

    Zeit Temperatur Niederschläge Wind Luftdruck Luftfeuchtigkeit
    00:00 +20°C° 0 mm 1 m/S 735 mmHg 96%
    01:00 +19°C° 0 mm 1 m/S 736 mmHg 96%
    02:00 +19°C° 0 mm 1 m/S 736 mmHg 96%
    03:00 +19°C° 0 mm 1 m/S 736 mmHg 97%
    04:00 +19°C° 0 mm 1 m/S 736 mmHg 97%
    05:00 +20°C° 0 mm 1 m/S 736 mmHg 97%
    06:00 +21°C° 0 mm 1 m/S 736 mmHg 94%
    07:00 +22°C° 0 mm 1 m/S 736 mmHg 90%
    08:00 +24°C° 0 mm 1 m/S 737 mmHg 87%
    09:00 +24°C° 0,4 mm 1 m/S 737 mmHg 85%
    10:00 +25°C° 0,4 mm 2 m/S 736 mmHg 82%
    11:00 +26°C° 0,4 mm 2 m/S 736 mmHg 80%
    12:00 +26°C° 0,5 mm 2 m/S 736 mmHg 77%
    13:00 +27°C° 0,5 mm 1 m/S 736 mmHg 75%
    14:00 +27°C° 0,5 mm 1 m/S 736 mmHg 73%
    15:00 +27°C° 0,6 mm 1 m/S 736 mmHg 74%
    16:00 +27°C° 0,6 mm 1 m/S 736 mmHg 76%
    17:00 +27°C° 0,6 mm 2 m/S 736 mmHg 78%
    18:00 +25°C° 0,5 mm 1 m/S 736 mmHg 82%
    19:00 +24°C° 0,5 mm 1 m/S 736 mmHg 86%
    20:00 +22°C° 0,5 mm 1 m/S 736 mmHg 90%
    21:00 +21°C° 0,1 mm 1 m/S 736 mmHg 91%
    22:00 +21°C° 0,1 mm 1 m/S 736 mmHg 92%
    23:00 +20°C° 0,1 mm 1 m/S 736 mmHg 93%

    übermorgen, 22 Juli, Sonntag

    Zeit Temperatur Niederschläge Wind Luftdruck Luftfeuchtigkeit
    00:00 +20°C° 0 mm 1 m/S 736 mmHg 94%
    01:00 +19°C° 0 mm 1 m/S 736 mmHg 94%
    02:00 +19°C° 0 mm 1 m/S 736 mmHg 94%
    03:00 +19°C° 0 mm 1 m/S 736 mmHg 94%
    04:00 +19°C° 0 mm 1 m/S 736 mmHg 94%
    05:00 +19°C° 0 mm 1 m/S 736 mmHg 95%
    06:00 +21°C° 0 mm 1 m/S 736 mmHg 91%
    07:00 +23°C° 0 mm 1 m/S 736 mmHg 87%
    08:00 +24°C° 0 mm 1 m/S 736 mmHg 83%
    09:00 +25°C° 1,1 mm 1 m/S 736 mmHg 79%
    10:00 +26°C° 1,1 mm 1 m/S 736 mmHg 75%
    11:00 +27°C° 1,1 mm 1 m/S 736 mmHg 71%
    12:00 +27°C° 1,3 mm 1 m/S 736 mmHg 71%
    13:00 +28°C° 1,3 mm 1 m/S 735 mmHg 71%
    14:00 +28°C° 1,3 mm 1 m/S 735 mmHg 70%
    15:00 +28°C° 0,7 mm 1 m/S 735 mmHg 72%
    16:00 +27°C° 0,7 mm 1 m/S 735 mmHg 74%
    17:00 +27°C° 0,7 mm 1 m/S 735 mmHg 76%
    18:00 +26°C° 0,5 mm 1 m/S 735 mmHg 81%
    19:00 +24°C° 0,5 mm 1 m/S 735 mmHg 87%
    20:00 +21°C° 0,5 mm 2 m/S 735 mmHg 92%
    21:00 +21°C° 0,1 mm 2 m/S 735 mmHg 93%
    22:00 +21°C° 0,1 mm 1 m/S 735 mmHg 94%
    23:00 +21°C° 0,1 mm 1 m/S 735 mmHg 95%

    23 Juli, Montag

    Zeit Temperatur Niederschläge Wind Luftdruck Luftfeuchtigkeit
    00:00 +19°C° 0,2 mm 2 m/S 735 mmHg 96%
    01:00 +19°C° 0,2 mm 2 m/S 735 mmHg 96%
    02:00 +19°C° 0,2 mm 2 m/S 735 mmHg 97%
    03:00 +19°C° 0,2 mm 2 m/S 735 mmHg 97%
    04:00 +19°C° 0,2 mm 2 m/S 735 mmHg 97%
    05:00 +19°C° 0,2 mm 2 m/S 736 mmHg 97%
    06:00 +20°C° 0 mm 2 m/S 736 mmHg 96%
    07:00 +20°C° 0 mm 2 m/S 736 mmHg 95%
    08:00 +21°C° 0 mm 2 m/S 736 mmHg 94%
    09:00 +21°C° 0,1 mm 2 m/S 736 mmHg 93%
    10:00 +21°C° 0,1 mm 2 m/S 736 mmHg 92%
    11:00 +23°C° 0,1 mm 2 m/S 736 mmHg 91%
    12:00 +23°C° 0,6 mm 2 m/S 736 mmHg 88%
    13:00 +24°C° 0,6 mm 2 m/S 736 mmHg 86%
    14:00 +25°C° 0,6 mm 2 m/S 736 mmHg 83%
    15:00 +25°C° 0,8 mm 2 m/S 736 mmHg 83%
    16:00 +25°C° 0,8 mm 2 m/S 736 mmHg 83%
    17:00 +25°C° 0,8 mm 2 m/S 736 mmHg 83%
    18:00 +24°C° 0,7 mm 2 m/S 737 mmHg 87%
    19:00 +23°C° 0,7 mm 2 m/S 737 mmHg 91%
    20:00 +20°C° 0,7 mm 2 m/S 737 mmHg 94%
    21:00 +20°C° 0 mm 2 m/S 737 mmHg 95%
    22:00 +20°C° 0 mm 2 m/S 737 mmHg 96%
    23:00 +19°C° 0 mm 2 m/S 737 mmHg 97%

    24 Juli, Dienstag

    Zeit Temperatur Niederschläge Wind Luftdruck Luftfeuchtigkeit
    00:00 +19°C° 0,1 mm 2 m/S 737 mmHg 98%
    01:00 +19°C° 0,1 mm 2 m/S 737 mmHg 98%
    02:00 +19°C° 0,1 mm 2 m/S 737 mmHg 98%
    03:00 +19°C° 0 mm 2 m/S 737 mmHg 98%
    04:00 +19°C° 0 mm 2 m/S 738 mmHg 98%
    05:00 +19°C° 0 mm 2 m/S 738 mmHg 98%
    06:00 +19°C° 0,1 mm 2 m/S 738 mmHg 97%
    07:00 +20°C° 0,1 mm 2 m/S 738 mmHg 96%
    08:00 +20°C° 0,1 mm 2 m/S 739 mmHg 95%
    09:00 +20°C° 0,1 mm 2 m/S 739 mmHg 94%
    10:00 +21°C° 0,1 mm 2 m/S 739 mmHg 94%
    11:00 +21°C° 0,1 mm 2 m/S 739 mmHg 93%
    12:00 +23°C° 0,4 mm 2 m/S 739 mmHg 89%
    13:00 +24°C° 0,4 mm 2 m/S 739 mmHg 84%
    14:00 +25°C° 0,4 mm 2 m/S 740 mmHg 80%
    15:00 +25°C° 0,6 mm 2 m/S 740 mmHg 82%
    16:00 +25°C° 0,6 mm 2 m/S 740 mmHg 83%
    17:00 +25°C° 0,6 mm 2 m/S 740 mmHg 85%
    18:00 +24°C° 1,1 mm 2 m/S 740 mmHg 88%
    19:00 +22°C° 1,1 mm 1 m/S 740 mmHg 91%
    20:00 +21°C° 1,1 mm 1 m/S 740 mmHg 94%
    21:00 +21°C° 0,1 mm 1 m/S 740 mmHg 94%
    22:00 +20°C° 0,1 mm 1 m/S 740 mmHg 95%
    23:00 +20°C° 0,1 mm 1 m/S 740 mmHg 95%

    25 Juli, Mittwoch

    Zeit Temperatur Niederschläge Wind Luftdruck Luftfeuchtigkeit
    00:00 +20°C° 0 mm 1 m/S 740 mmHg 96%
    01:00 +19°C° 0 mm 1 m/S 740 mmHg 96%
    02:00 +19°C° 0 mm 1 m/S 741 mmHg 96%
    03:00 +19°C° 0 mm 1 m/S 741 mmHg 96%
    04:00 +19°C° 0 mm 1 m/S 741 mmHg 96%
    05:00 +20°C° 0 mm 1 m/S 741 mmHg 96%
    06:00 +21°C° 0,1 mm 1 m/S 741 mmHg 94%
    07:00 +22°C° 0,1 mm 1 m/S 742 mmHg 91%
    08:00 +23°C° 0,1 mm 1 m/S 742 mmHg 88%
    09:00 +24°C° 0,5 mm 2 m/S 742 mmHg 84%
    10:00 +25°C° 0,5 mm 2 m/S 742 mmHg 81%
    11:00 +25°C° 0,5 mm 3 m/S 742 mmHg 77%
    12:00 +25°C° 0,5 mm 3 m/S 742 mmHg 79%
    13:00 +25°C° 0,5 mm 4 m/S 742 mmHg 80%
    14:00 +23°C° 0,5 mm 4 m/S 742 mmHg 82%
    15:00 +22°C° 0,2 mm 4 m/S 742 mmHg 83%
    16:00 +22°C° 0,2 mm 4 m/S 742 mmHg 85%
    17:00 +21°C° 0,2 mm 4 m/S 742 mmHg 87%
    18:00 +20°C° 0,1 mm 3 m/S 742 mmHg 89%
    19:00 +19°C° 0,1 mm 3 m/S 742 mmHg 92%
    20:00 +18°C° 0,1 mm 2 m/S 742 mmHg 94%
    21:00 +18°C° 0 mm 2 m/S 742 mmHg 95%
    22:00 +17°C° 0 mm 2 m/S 742 mmHg 95%
    23:00 +18°C° 0 mm 1 m/S 742 mmHg 96%
    Mehr zeigen